| time (UTC) | temp F | wind direction | speed knots | gust knots | rain 1hr in | rain 24hr in | rain mn in | humidity % | barometer mb |
| 20260507071005 | 53 | 45 | 0.9 | 1.7 | 0.00 | 0.03 | 0.00 | 78 | 1028.8 |
| 20260507070009 | 53 | 45 | 0.9 | 0.9 | 0.00 | 0.03 | 0.00 | 77 | 1028.8 |
| 20260507065005 | 51 | 45 | 0.9 | 0.9 | 0.00 | 0.03 | 0.00 | 79 | 1028.8 |
| 20260507064005 | 50 | 45 | 0.0 | 4.3 | 0.00 | 0.03 | 0.00 | 82 | 1028.8 |
| 20260507063005 | 50 | 68 | 0.9 | 1.7 | 0.00 | 0.03 | 0.00 | 82 | 1028.8 |
| 20260507062005 | 51 | 45 | 0.0 | 1.7 | 0.00 | 0.03 | 0.00 | 82 | 1028.8 |
| 20260507061004 | 51 | 45 | 0.0 | 2.6 | 0.00 | 0.03 | 0.00 | 81 | 1028.8 |
| 20260507060005 | 50 | 16 | 0.9 | 2.6 | 0.00 | 0.03 | 0.00 | 80 | 1028.8 |
| 20260507055005 | 49 | 248 | 0.0 | 0.9 | 0.00 | 0.03 | 0.00 | 82 | 1028.4 |
| 20260507054005 | 48 | 248 | 0.9 | 0.9 | 0.00 | 0.03 | 0.00 | 85 | 1027.8 |
| 20260507053005 | 47 | 248 | 0.0 | 0.9 | 0.00 | 0.03 | 0.00 | 85 | 1027.8 |
| 20260507052005 | 47 | 270 | 1.7 | 2.6 | 0.00 | 0.03 | 0.00 | 86 | 1027.8 |
| 20260507051005 | 46 | 270 | 0.0 | 0.0 | 0.00 | 0.03 | 0.00 | 87 | 1027.8 |
| 20260507050005 | 46 | 270 | 0.0 | 0.0 | 0.00 | 0.03 | 0.00 | 88 | 1027.8 |
| 20260507045004 | 46 | 202 | 0.0 | 0.0 | 0.00 | 0.03 | 0.00 | 87 | 1027.8 |
| 20260507044005 | 46 | 158 | 0.0 | 0.0 | 0.00 | 0.03 | 0.00 | 88 | 1027.8 |
| 20260507043005 | 45 | 158 | 0.0 | 0.0 | 0.00 | 0.03 | 0.00 | 88 | 1027.8 |
| 20260507041005 | 45 | 158 | 0.0 | 4.3 | 0.00 | 0.03 | 0.00 | 88 | 1027.8 |
| 20260507040005 | 45 | 158 | 0.9 | 0.9 | 0.00 | 0.03 | 0.00 | 88 | 1027.8 |
| 20260507035005 | 45 | 158 | 0.0 | 0.0 | 0.00 | 0.03 | 0.00 | 89 | 1027.8 |
| 20260507034005 | 44 | 225 | 0.0 | 0.0 | 0.00 | 0.03 | 0.00 | 89 | 1027.8 |
| 20260507033005 | 44 | 225 | 0.0 | 0.0 | 0.00 | 0.03 | 0.00 | 90 | 1027.1 |
| 20260507032005 | 44 | 225 | 0.0 | 0.0 | 0.00 | 0.03 | 0.00 | 89 | 1027.1 |
| 20260507031005 | 44 | 135 | 0.0 | 0.0 | 0.00 | 0.03 | 0.00 | 89 | 1027.1 |
| 20260507030005 | 44 | 135 | 0.0 | 0.0 | 0.00 | 0.03 | 0.00 | 90 | 1027.1 |
| 20260507025004 | 44 | 135 | 0.0 | 0.0 | 0.00 | 0.03 | 0.00 | 90 | 1027.1 |
| 20260507024005 | 44 | 135 | 0.0 | 0.0 | 0.00 | 0.03 | 0.00 | 90 | 1027.8 |
| 20260507023005 | 44 | 135 | 0.0 | 0.0 | 0.00 | 0.03 | 0.00 | 90 | 1027.1 |
| 20260507022005 | 44 | 135 | 0.0 | 0.0 | 0.00 | 0.03 | 0.00 | 90 | 1027.1 |
| 20260507021004 | 44 | 135 | 0.0 | 0.0 | 0.00 | 0.03 | 0.00 | 90 | 1027.1 |
| 20260507014005 | 45 | 135 | 0.0 | 0.0 | 0.00 | 0.03 | 0.00 | 89 | 1027.1 |
| 20260507013005 | 46 | 158 | 0.0 | 0.0 | 0.00 | 0.03 | 0.00 | 88 | 1027.1 |
| 20260507012005 | 46 | 158 | 0.0 | 0.0 | 0.00 | 0.03 | 0.00 | 88 | 1027.1 |
| 20260507011005 | 46 | 158 | 0.0 | 0.9 | 0.00 | 0.03 | 0.00 | 88 | 1027.1 |
| 20260507010005 | 46 | 158 | 0.0 | 0.9 | 0.00 | 0.03 | 0.00 | 88 | 1027.1 |
| 20260507005005 | 46 | 158 | 0.0 | 4.3 | 0.00 | 0.03 | 0.00 | 88 | 1027.1 |
| 20260507004004 | 46 | 158 | 4.3 | 4.3 | 0.00 | 0.03 | 0.00 | 88 | 1027.1 |
| 20260507003005 | 46 | 158 | 0.0 | 1.7 | 0.00 | 0.03 | 0.00 | 88 | 1027.1 |
| 20260507002005 | 46 | 135 | 0.9 | 0.9 | 0.00 | 0.03 | 0.00 | 88 | 1027.1 |
| 20260507000005 | 46 | 135 | 0.9 | 0.9 | 0.00 | 0.03 | 0.00 | 88 | 1027.1 |
| 20260506235005 | 47 | 135 | 0.9 | 1.7 | 0.00 | 0.03 | 0.00 | 88 | 1027.1 |
| 20260506234005 | 47 | 158 | 1.7 | 1.7 | 0.00 | 0.03 | 0.00 | 88 | 1027.1 |
| 20260506231005 | 47 | 158 | 0.9 | 0.9 | 0.00 | 0.03 | 0.00 | 87 | 1027.1 |
| 20260506230005 | 47 | 158 | 0.0 | 4.3 | 0.00 | 0.03 | 0.00 | 87 | 1027.1 |
| 20260506225005 | 47 | 159 | 1.7 | 4.3 | 0.00 | 0.03 | 0.00 | 87 | 1027.1 |
| 20260506224004 | 48 | 180 | 1.7 | 4.3 | 0.00 | 0.03 | 0.00 | 88 | 1027.1 |
| 20260506222005 | 49 | 158 | 0.9 | 0.9 | 0.00 | 0.03 | 0.00 | 86 | 1027.1 |
| 20260506221005 | 50 | 180 | 1.7 | 1.7 | 0.00 | 0.03 | 0.00 | 85 | 1027.1 |
| 20260506220005 | 50 | 90 | 0.9 | 0.9 | 0.00 | 0.03 | 0.00 | 85 | 1027.1 |
| 20260506215006 | 49 | 90 | 0.9 | 0.9 | 0.00 | 0.03 | 0.03 | 86 | 1027.1 |
| 20260506214004 | 49 | 338 | 0.0 | 0.0 | 0.00 | 0.03 | 0.03 | 84 | 1027.1 |
| 20260506213005 | 50 | 338 | 0.0 | 0.9 | 0.00 | 0.03 | 0.03 | 84 | 1026.1 |
| 20260506211005 | 50 | 315 | 0.9 | 2.6 | 0.00 | 0.03 | 0.03 | 79 | 1026.1 |
| 20260506210005 | 51 | 68 | 2.6 | 4.3 | 0.00 | 0.03 | 0.03 | 78 | 1026.1 |
| 20260506205005 | 50 | 315 | 0.9 | 5.2 | 0.00 | 0.03 | 0.03 | 78 | 1026.1 |
| 20260506204005 | 50 | 292 | 5.2 | 7.0 | 0.00 | 0.03 | 0.03 | 79 | 1026.1 |
| 20260506202004 | 50 | 68 | 1.7 | 5.2 | 0.00 | 0.03 | 0.03 | 88 | 1025.1 |
| 20260506201004 | 50 | 270 | 5.2 | 5.2 | 0.00 | 0.03 | 0.03 | 84 | 1025.1 |
| 20260506200005 | 51 | 292 | 0.0 | 2.6 | 0.00 | 0.03 | 0.03 | 89 | 1025.1 |
| 20260506195005 | 51 | 45 | 2.6 | 4.3 | 0.00 | 0.03 | 0.03 | 88 | 1025.1 |
| 20260506194005 | 51 | 270 | 0.9 | 0.9 | 0.00 | 0.03 | 0.03 | 86 | 1025.1 |
| 20260506193005 | 52 | 270 | 0.9 | 0.9 | 0.00 | 0.03 | 0.03 | 87 | 1025.1 |
| 20260506192005 | 52 | 270 | 0.9 | 0.9 | 0.02 | 0.03 | 0.03 | 85 | 1025.1 |
| 20260506191004 | 53 | 270 | 0.9 | 0.9 | 0.03 | 0.03 | 0.03 | 85 | 1025.1 |
| 20260506185005 | 54 | 292 | 4.3 | 4.3 | 0.03 | 0.03 | 0.03 | 83 | 1024.0 |
| 20260506184005 | 55 | 248 | 0.9 | 1.7 | 0.03 | 0.03 | 0.03 | 85 | 1023.0 |
| 20260506183005 | 55 | 158 | 1.7 | 1.7 | 0.03 | 0.03 | 0.03 | 81 | 1023.0 |
| 20260506182005 | 57 | 292 | 0.9 | 4.3 | 0.01 | 0.01 | 0.01 | 77 | 1023.0 |
| 20260506181005 | 59 | 292 | 4.3 | 6.1 | 0.00 | 0.00 | 0.00 | 68 | 1023.0 |
| 20260506180006 | 60 | 292 | 6.1 | 6.1 | 0.00 | 0.00 | 0.00 | 63 | 1022.0 |
| 20260506174005 | 62 | 315 | 4.3 | 4.3 | 0.00 | 0.00 | 0.00 | 50 | 1022.0 |
| 20260506172005 | 64 | 45 | 0.9 | 4.3 | 0.00 | 0.00 | 0.00 | 45 | 1022.0 |
| 20260506171004 | 65 | 292 | 2.6 | 6.1 | 0.00 | 0.00 | 0.00 | 44 | 1022.0 |
| 20260506170004 | 65 | 315 | 5.2 | 5.2 | 0.00 | 0.00 | 0.00 | 42 | 1021.0 |
| 20260506165005 | 65 | 292 | 0.9 | 4.3 | 0.00 | 0.00 | 0.00 | 42 | 1021.0 |
| 20260506164005 | 65 | 282 | 1.7 | 5.2 | 0.00 | 0.00 | 0.00 | 42 | 1021.0 |
| 20260506163005 | 66 | 298 | 5.2 | 11.3 | 0.00 | 0.00 | 0.00 | 41 | 1021.0 |
| 20260506161005 | 67 | 61 | 5.2 | 6.1 | 0.00 | 0.00 | 0.00 | 38 | 1021.0 |
| 20260506155004 | 70 | 338 | 4.3 | 4.3 | 0.00 | 0.00 | 0.00 | 37 | 1021.0 |
| 20260506154005 | 70 | 292 | 0.9 | 4.3 | 0.00 | 0.00 | 0.00 | 35 | 1021.0 |
| 20260506153005 | 70 | 292 | 1.7 | 4.3 | 0.00 | 0.00 | 0.00 | 35 | 1020.0 |
| 20260506152005 | 69 | 292 | 0.9 | 4.3 | 0.00 | 0.00 | 0.00 | 36 | 1020.0 |
| 20260506151004 | 69 | 270 | 4.3 | 4.3 | 0.00 | 0.00 | 0.00 | 37 | 1020.0 |
| 20260506150005 | 69 | 292 | 3.5 | 5.2 | 0.00 | 0.00 | 0.00 | 37 | 1020.0 |
| 20260506145004 | 71 | 292 | 4.3 | 5.2 | 0.00 | 0.00 | 0.00 | 37 | 1020.0 |
| 20260506143005 | 72 | 248 | 0.9 | 0.9 | 0.00 | 0.00 | 0.00 | 31 | 1020.0 |
| 20260506142005 | 71 | 248 | 0.0 | 4.3 | 0.00 | 0.00 | 0.00 | 32 | 1020.0 |
| 20260506140005 | 72 | 225 | 4.3 | 6.1 | 0.00 | 0.00 | 0.00 | 34 | 1020.0 |
| 20260506135005 | 73 | 180 | 6.1 | 6.1 | 0.00 | 0.00 | 0.00 | 32 | 1020.0 |
| 20260506134005 | 75 | 202 | 6.1 | 6.1 | 0.00 | 0.00 | 0.00 | 31 | 1020.0 |
| 20260506133005 | 75 | 180 | 4.3 | 4.3 | 0.00 | 0.00 | 0.00 | 29 | 1020.0 |
| 20260506132005 | 74 | 135 | 2.6 | 4.3 | 0.00 | 0.00 | 0.00 | 29 | 1020.0 |
| 20260506130005 | 73 | 158 | 2.6 | 4.3 | 0.00 | 0.00 | 0.00 | 32 | 1020.0 |
| 20260506125005 | 74 | 180 | 0.9 | 2.6 | 0.00 | 0.00 | 0.00 | 30 | 1020.0 |
| 20260506124004 | 75 | 225 | 0.9 | 5.2 | 0.00 | 0.00 | 0.00 | 30 | 1020.0 |
| 20260506123005 | 74 | 202 | 5.2 | 5.2 | 0.00 | 0.00 | 0.00 | 30 | 1021.0 |
| 20260506121004 | 73 | 135 | 7.0 | 8.7 | 0.00 | 0.00 | 0.00 | 33 | 1021.0 |
| 20260506120005 | 75 | 180 | 5.2 | 5.2 | 0.00 | 0.00 | 0.00 | 32 | 1021.0 |
| 20260506115005 | 77 | 180 | 4.3 | 6.1 | 0.00 | 0.00 | 0.00 | 31 | 1021.0 |
| 20260506114005 | 77 | 158 | 0.9 | 2.6 | 0.00 | 0.00 | 0.00 | 28 | 1021.0 |
| 20260506113005 | 73 | 158 | 0.9 | 0.9 | 0.00 | 0.00 | 0.00 | 31 | 1021.0 |
| 20260506112004 | 71 | 338 | 0.9 | 2.6 | 0.00 | 0.00 | 0.00 | 37 | 1021.0 |
| 20260506111005 | 71 | 68 | 2.6 | 2.6 | 0.00 | 0.00 | 0.00 | 37 | 1021.0 |
| 20260506110005 | 69 | 68 | 0.9 | 7.8 | 0.00 | 0.00 | 0.00 | 38 | 1022.0 |
| 20260506105005 | 68 | 22 | 5.2 | 7.8 | 0.00 | 0.00 | 0.00 | 41 | 1022.0 |
| 20260506103005 | 65 | 22 | 4.3 | 6.1 | 0.00 | 0.00 | 0.00 | 50 | 1022.0 |
| 20260506102004 | 66 | 315 | 5.2 | 6.1 | 0.00 | 0.00 | 0.00 | 49 | 1022.0 |
| 20260506100005 | 64 | 22 | 2.6 | 4.3 | 0.00 | 0.00 | 0.00 | 51 | 1023.0 |
| 20260506095004 | 61 | 345 | 4.3 | 4.3 | 0.00 | 0.00 | 0.00 | 55 | 1023.0 |
| 20260506094005 | 60 | 315 | 1.7 | 2.6 | 0.00 | 0.00 | 0.00 | 58 | 1023.0 |
| 20260506093005 | 60 | 315 | 2.6 | 2.6 | 0.00 | 0.00 | 0.00 | 59 | 1023.0 |
| 20260506092005 | 60 | 292 | 0.9 | 1.7 | 0.00 | 0.00 | 0.00 | 59 | 1023.0 |
| 20260506091004 | 61 | 292 | 2.6 | 4.3 | 0.00 | 0.00 | 0.00 | 59 | 1023.0 |
| 20260506090005 | 61 | 292 | 1.7 | 2.6 | 0.00 | 0.00 | 0.00 | 59 | 1023.0 |
| 20260506085005 | 62 | 0 | 1.7 | 2.6 | 0.00 | 0.00 | 0.00 | 60 | 1023.0 |
| 20260506084005 | 63 | 45 | 0.9 | 0.9 | 0.00 | 0.00 | 0.00 | 57 | 1023.0 |
| 20260506083004 | 64 | 292 | 0.9 | 0.9 | 0.00 | 0.00 | 0.00 | 51 | 1023.0 |
| 20260506082005 | 66 | 68 | 0.0 | 0.9 | 0.00 | 0.00 | 0.00 | 48 | 1023.0 |
| 20260506081005 | 68 | 270 | 0.9 | 1.7 | 0.00 | 0.00 | 0.00 | 44 | 1023.0 |
| 20260506073005 | 57 | 90 | 0.9 | 0.9 | 0.00 | 0.00 | 0.00 | 63 | 1024.0 |
| 20260506072005 | 56 | 90 | 0.0 | 0.9 | 0.00 | 0.00 | 0.00 | 65 | 1024.0 |